Content
SEND FEEDBACK

Daily
Averages
Monthly
Summary
United States of America

CRIVITZ, WISCONSIN


Home > North America > United States > Wisconsin
Elevation: 900 feet     Latitude: 45 19N     Longitude: 088 11W

WEATHER
 
SELECT A DAY
Number of Records: 465,874;   Date Range: 1/1/95 - 12/19/14
 
SHARE

PRINT THIS DATA

[ ← Previous Day ]
WEATHER ALMANAC - FEBRUARY 5, 2013
[ Next Day → ]
[ °C ]   °F
Weather ElementAverageHighLow
Temperature14.4 °F23 °F (2:35 pm)3.2 °F (12:35 am)
Dewpoint7.7 °F15.8 °F (11:15 am)-4 °F (1:35 am)
Humidity75.5 %100 % (6:55 am)54 % (4:55 pm)
Barometer29.83 in30.07 in (11:55 pm)29.71 in (8:15 am)
Wind Speed6.2 mph13.8 mph (8:15 am)
Wind Gust16.1 mph (11:35 am)
Weather ElementAverage
Visibility8.5 mi
Wind DirectionWSW (237.2 °)

Weather ElementTotal
Precipitation---
Heating Degree Days51.9 (Base 65)
Averaged from 69 records on February 5, 2013
WEATHER CONDITIONS BREAKOUT
WIND DIRECTION BREAKOUT
WEATHER BY HOUR - FEBRUARY 5, 2013
[ °C ]   °F
Local TimeTemperatureDewpointHumidityBarometerVisibilityWind DirectionWind SpeedGust SpeedPrecipitationEventsConditions
12:35 AM3.2 °F-2.2 °F78 %29.86 in10.0 miWSW (240°)3.5 mphClear
12:55 AM3.2 °F-0.4 °F85 %29.86 in10.0 miSW (230°)4.6 mphClear
1:15 AM3.2 °F1.4 °F92 %29.86 in10.0 miWSW (240°)5.8 mphPartly Cloudy
1:35 AM3.2 °F-4.0 °F72 %29.86 in10.0 miSW (230°)4.6 mphMostly Cloudy
1:55 AM3.2 °F-2.2 °F78 %29.86 in10.0 miWSW (240°)3.5 mphOvercast
2:15 AM3.2 °F-2.2 °F78 %29.85 in10.0 miSW (220°)3.5 mphOvercast
2:35 AM5.0 °F1.4 °F85 %29.84 in10.0 miWSW (250°)3.5 mphOvercast
2:55 AM5.0 °F-2.2 °F72 %29.83 in10.0 miWSW (240°)3.5 mphOvercast
3:15 AM5.0 °F-4.0 °F66 %29.83 in10.0 miWSW (240°)3.5 mphOvercast
3:35 AM5.0 °F1.4 °F85 %29.82 in10.0 miSW (230°)4.6 mphOvercast
3:55 AM6.8 °F1.4 °F79 %29.80 in10.0 miSW (230°)5.8 mphOvercast
4:15 AM6.8 °F-4.0 °F61 %29.79 in10.0 miSSW (210°)8.1 mphOvercast
4:35 AM8.6 °F-4.0 °F57 %29.78 in10.0 miSSW (210°)5.8 mphOvercast
4:55 AM8.6 °F1.4 °F73 %29.78 in10.0 miSW (220°)11.5 mphOvercast
5:15 AM10.4 °F3.2 °F73 %29.78 in10.0 miSW (230°)8.1 mphOvercast
5:35 AM10.4 °F6.8 °F85 %29.76 in2.0 miSW (220°)9.2 mphOvercast
5:55 AM10.4 °F6.8 °F85 %29.75 in2.5 miSW (220°)9.2 mphOvercast
6:15 AM10.4 °F8.6 °F92 %29.74 in2.5 miSSW (210°)9.2 mphOvercast
6:35 AM10.4 °F6.8 °F85 %29.73 in2.0 miSSW (210°)9.2 mphOvercast
6:55 AM10.4 °F10.4 °F100 %29.73 in3.0 miSSW (200°)6.9 mphOvercast
7:15 AM12.2 °F8.6 °F85 %29.72 in2.5 miSSW (210°)8.1 mphOvercast
7:35 AM12.2 °F10.4 °F92 %29.72 in1.2 miSW (230°)8.1 mphOvercast
8:15 AM14.0 °F10.4 °F86 %29.71 in5.0 miSW (230°)13.8 mphOvercast
8:35 AM14.0 °F14.0 °F100 %29.71 in7.0 miSW (230°)11.5 mphOvercast
8:55 AM14.0 °F10.4 °F86 %29.71 in7.0 miWSW (240°)9.2 mphOvercast
9:15 AM14.0 °F10.4 °F86 %29.71 in7.0 miWSW (250°)5.8 mphOvercast
9:35 AM14.0 °F12.2 °F93 %29.71 in2.5 miWest (260°)8.1 mphOvercast
9:55 AM15.8 °F12.2 °F86 %29.71 in2.5 miWest (260°)6.9 mphOvercast
10:15 AM15.8 °F10.4 °F79 %29.71 in1.5 miWest (270°)9.2 mphOvercast
10:35 AM15.8 °F10.4 °F79 %29.71 in5.0 miWest (270°)6.9 mphOvercast
10:55 AM17.6 °F14.0 °F86 %29.72 in5.0 miWest (270°)10.4 mphOvercast
11:15 AM17.6 °F15.8 °F93 %29.72 in7.0 miWest (280°)5.8 mphOvercast
11:35 AM19.4 °F14.0 °F80 %29.71 in9.0 miWNW (290°)9.2 mph16.1 mphOvercast
11:55 AM19.4 °F12.2 °F74 %29.72 in10.0 miWNW (290°)11.5 mphOvercast
12:15 PM19.4 °F15.8 °F86 %29.72 in9.0 miNW (310°)6.9 mphOvercast
12:35 PM19.4 °F15.8 °F86 %29.73 in10.0 miNW (320°)6.9 mphOvercast
12:55 PM19.4 °F14.0 °F80 %29.73 in10.0 miNW (320°)8.1 mphOvercast
1:15 PM21.2 °F10.4 °F63 %29.74 in10.0 miNW (320°)6.9 mphOvercast
1:35 PM21.2 °F8.6 °F58 %29.74 in10.0 miNNW (330°)8.1 mphMostly Cloudy
1:55 PM21.2 °F8.6 °F58 %29.75 in10.0 miNNW (330°)8.1 mphMostly Cloudy
2:15 PM21.2 °F10.4 °F63 %29.76 in10.0 miNorth (350°)9.2 mphOvercast
2:35 PM23.0 °F12.2 °F63 %29.78 in10.0 miNNW (330°)8.1 mphOvercast
2:55 PM23.0 °F14.0 °F68 %29.78 in10.0 miNW (320°)5.8 mph16.1 mphOvercast
3:15 PM23.0 °F12.2 °F63 %29.80 in10.0 miNorth (350°)11.5 mph16.1 mphOvercast
3:35 PM23.0 °F12.2 °F63 %29.81 in10.0 miNorth (350°)10.4 mphOvercast
3:55 PM23.0 °F12.2 °F63 %29.81 in10.0 miNNW (340°)11.5 mph16.1 mphOvercast
4:15 PM23.0 °F10.4 °F59 %29.82 in10.0 miNNW (330°)8.1 mphOvercast
4:35 PM23.0 °F10.4 °F59 %29.84 in10.0 miNNW (340°)8.1 mphOvercast
4:55 PM23.0 °F8.6 °F54 %29.85 in10.0 miNNW (340°)6.9 mphOvercast
5:15 PM23.0 °F10.4 °F59 %29.86 in10.0 miNW (320°)4.6 mphOvercast
5:35 PM23.0 °F12.2 °F63 %29.88 in10.0 miNNW (330°)3.5 mphOvercast
5:55 PM23.0 °F10.4 °F59 %29.89 in10.0 miNW (320°)3.5 mphOvercast
6:15 PM21.2 °F10.4 °F63 %29.89 in10.0 miCalmMostly Cloudy
6:35 PM19.4 °F10.4 °F68 %29.91 in10.0 miCalmOvercast
7:15 PM19.4 °F10.4 °F68 %29.94 in10.0 miNNW (330°)6.9 mphOvercast
7:35 PM21.2 °F12.2 °F68 %29.95 in10.0 miNNW (340°)5.8 mphOvercast
7:55 PM19.4 °F12.2 °F74 %29.96 in10.0 miNNW (330°)5.8 mphMostly Cloudy
8:15 PM19.4 °F10.4 °F68 %29.97 in10.0 miNNW (330°)4.6 mphPartly Cloudy
8:35 PM17.6 °F10.4 °F73 %29.98 in10.0 miNNW (340°)8.1 mphClear
8:55 PM17.6 °F8.6 °F68 %30.00 in10.0 miNNW (330°)5.8 mphClear
9:15 PM17.6 °F8.6 °F68 %30.00 in10.0 miNW (320°)4.6 mphClear
9:35 PM15.8 °F8.6 °F73 %30.01 in10.0 miCalmClear
9:55 PM14.0 °F8.6 °F79 %30.02 in10.0 miCalmClear
10:15 PM12.2 °F6.8 °F79 %30.02 in10.0 miCalmClear
10:35 PM10.4 °F5.0 °F79 %30.03 in10.0 miCalmClear
10:55 PM10.4 °F5.0 °F79 %30.04 in10.0 miCalmClear
11:15 PM8.6 °F1.4 °F73 %30.05 in10.0 miCalmClear
11:35 PM3.2 °F-2.2 °F78 %30.05 in10.0 miCalmClear
11:55 PM5.0 °F5.0 °F100 %30.07 in10.0 miCalmClear
Hourly data recorded from KMNM, located miles away from Crivitz, Wisconsin







STORIES FROM OUR PARTNERS